Wind_Speed
12 12 12 13 12 12 12 12 13 14 14 15 15 16 16 16 16 16 17 17 17 16 16 16 15 15 15 15 15 15 15 15 15 15 15 15 15 16 15 15 15 14 14
12 13 13 13 13 13 13 13 14 14 15 15 16 16 17 17 17 16 17 17 17 17 17 17 16 16 15 15 15 15 15 15 15 16 15 15 16 16 15 16 16 16 15
12 13 13 13 13 13 14 14 14 14 15 15 16 17 17 17 17 17 17 17 17 17 17 16 17 16 16 16 16 16 16 15 16 16 16 15 15 16 16 16 16 16 16
13 13 13 13 14 14 14 14 15 15 15 15 15 16 17 17 17 17 17 17 16 17 17 17 17 17 17 17 17 16 16 17 17 17 17 17 16 16 16 16 15 15 15
14 14 14 15 15 15 15 16 16 15 15 16 16 15 16 17 17 17 17 17 16 16 17 17 17 17 17 17 16 16 16 17 17 17 17 17 17 17 17 16 16 16 16
15 15 16 16 16 17 17 17 17 17 17 17 17 16 16 17 17 18 18 18 18 17 17 17 17 17 16 17 17 16 16 16 17 17 17 17 17 17 18 18 17 17 17
15 15 16 17 17 18 18 18 18 18 18 18 18 17 17 17 17 18 18 18 18 18 18 18 18 17 17 18 17 16 17 17 17 17 17 17 17 17 17 17 18 18 18
15 15 16 17 17 18 18 18 18 19 19 19 19 19 18 18 18 18 19 19 19 19 19 19 18 18 18 18 18 18 18 18 18 18 17 17 17 17 18 17 17 17 18
15 15 16 16 17 17 18 18 18 18 18 19 19 19 19 19 19 19 20 20 20 20 20 20 20 19 19 19 20 20 19 19 19 19 19 18 18 18 18 18 18 18 18
15 15 15 16 17 17 17 17 17 18 18 18 19 19 19 20 19 20 20 20 20 21 21 21 21 21 20 21 21 21 20 20 20 20 20 20 20 19 19 19 20 20 20
15 15 15 16 16 16 17 17 17 17 18 18 18 19 19 20 20 20 20 20 20 20 20 21 21 21 21 21 21 21 21 21 21 21 21 21 20 20 20 21 21 21 22
15 15 15 15 15 15 16 16 17 17 18 19 18 19 19 19 20 21 21 20 19 19 20 20 21 21 21 21 21 22 22 22 22 22 22 22 22 22 21 22 22 22 22
15 15 16 15 15 15 15 16 17 18 18 19 19 19 19 20 20 20 21 21 21 21 21 21 22 22 22 22 23 23 23 23 23 23 23 23 23 23 22 22 22 22 23
15 16 16 16 16 15 15 15 17 17 18 19 19 20 20 20 20 20 21 21 22 22 22 23 23 24 24 23 23 24 23 24 24 24 24 24 24 23 23 23 23 23 23
16 16 17 17 16 16 17 17 17 17 18 19 20 20 21 21 21 21 21 22 22 23 23 24 25 25 25 25 24 24 24 24 24 24 24 24 24 24 23 23 24 24 24
17 18 18 18 17 17 18 18 19 19 19 20 20 20 21 22 22 23 23 23 23 24 24 25 25 26 26 26 25 24 24 25 24 24 24 24 24 24 24 24 23 24 23
18 18 18 18 18 19 20 20 20 20 20 20 20 20 21 22 23 23 24 25 25 25 25 26 25 25 25 25 25 25 24 25 25 24 24 24 24 24 24 24 24 24 24
19 19 19 19 19 20 20 20 21 21 21 21 21 21 21 22 23 24 24 25 25 25 25 25 25 25 25 25 25 25 26 25 25 25 24 24 24 25 24 25 24 24 24
21 20 20 20 21 21 21 21 21 22 22 22 21 22 22 23 23 24 24 25 25 25 25 26 26 26 26 26 26 26 26 26 25 25 25 25 25 25 25 25 25 25 24
22 22 21 22 22 22 22 22 22 23 22 22 22 22 22 23 24 24 25 25 25 25 25 26 26 26 26 27 27 27 27 27 27 27 27 26 26 26 25 25 25 25 26
23 23 23 23 23 24 24 24 24 24 23 23 23 24 24 24 24 25 26 26 26 26 26 26 27 27 27 28 28 28 28 28 28 28 28 28 27 26 25 26 26 25 25
25 25 24 25 25 25 24 24 24 24 24 25 25 25 25 25 26 26 27 27 27 27 27 27 27 28 28 28 28 29 29 29 29 29 29 29 28 27 27 27 27 27 26
27 27 27 27 26 26 26 25 25 25 25 25 26 26 26 26 26 27 27 28 28 29 29 28 27 28 29 28 28 29 29 30 30 30 30 30 30 29 28 28 27 28 27
27 28 28 28 27 27 26 26 26 26 27 27 27 28 28 29 29 29 29 29 29 29 29 29 28 29 29 29 29 29 30 31 31 31 31 31 31 31 30 29 29 28 28
28 28 28 28 27 27 27 26 27 27 28 28 29 29 30 30 30 31 31 30 30 30 30 30 29 30 30 31 31 30 30 31 32 32 32 32 32 32 31 31 30 30 30
29 29 28 28 28 28 28 27 27 28 28 29 29 30 30 31 31 31 31 31 30 30 31 31 31 31 30 31 32 32 32 32 32 33 33 33 33 33 33 32 32 31 31
Wind_Direction
275 275 274 273 271 270 269 269 268 268 265 263 262 261 258 256 259 258 256 256 258 258 258 258 259 261 261 262 265 268 263 257 255 254 255 256 255 257 257 259 261 261 261
279 277 275 272 271 270 270 270 269 266 264 261 261 260 258 257 259 259 259 259 258 258 259 258 258 259 261 264 267 267 262 257 260 258 255 256 256 257 259 260 259 259 260
281 281 279 274 271 270 270 270 271 267 265 263 261 260 259 257 256 256 258 260 261 260 259 258 259 259 261 264 266 266 261 259 260 260 260 261 260 258 260 262 261 260 259
282 282 281 277 271 268 268 269 269 268 267 265 264 261 260 258 258 257 258 259 260 258 258 259 260 260 261 264 266 264 260 258 258 261 264 265 263 262 261 261 260 258 257
281 281 280 277 272 270 269 268 268 268 268 267 265 263 261 261 261 258 257 257 257 257 257 258 259 260 262 265 264 262 261 259 259 261 262 261 262 263 264 264 261 261 259
280 279 278 276 274 272 272 270 270 269 267 266 263 261 260 261 261 258 256 257 257 257 258 257 258 259 261 262 261 259 259 259 261 261 260 260 260 261 263 264 261 259 262
283 282 280 276 273 271 270 270 270 270 268 266 265 264 262 260 260 258 257 257 257 258 259 258 259 258 259 259 259 259 259 259 260 259 260 260 261 260 261 261 259 259 260
287 284 283 279 275 272 270 269 269 269 267 265 265 265 264 263 260 259 258 257 256 257 258 258 258 258 258 257 259 261 262 262 261 261 261 261 262 260 259 258 258 258 258
289 287 286 282 278 273 271 270 268 267 266 265 265 264 263 263 264 260 259 258 257 258 258 259 258 257 258 258 260 260 261 260 260 261 262 263 263 262 260 259 257 257 258
293 291 290 287 281 276 272 270 268 268 267 265 264 264 263 262 262 261 262 261 260 259 259 259 259 259 259 259 261 262 261 261 261 261 262 263 263 263 261 260 259 259 260
294 293 292 289 285 279 275 270 267 269 269 267 265 265 265 263 261 261 262 262 261 261 260 259 259 259 259 259 261 262 261 261 262 262 262 261 261 261 261 262 261 261 262
295 294 294 292 288 283 277 271 267 268 268 266 266 267 267 265 263 261 261 261 262 262 261 261 261 261 260 260 260 261 262 262 262 261 260 260 260 260 261 263 263 264 264
296 295 295 294 291 285 280 274 271 271 269 267 266 268 267 266 265 263 261 262 264 264 263 263 264 264 263 262 261 262 263 263 261 261 261 261 261 261 261 264 264 264 265
296 296 295 293 290 285 280 278 278 274 272 270 268 268 267 266 266 266 264 264 265 265 265 264 265 265 264 264 263 263 262 262 261 261 261 260 261 261 261 262 264 264 265
297 296 293 292 290 286 282 281 278 276 275 272 270 268 265 265 266 267 267 266 267 267 266 265 265 266 265 265 264 264 262 261 260 261 261 260 260 261 261 262 263 264 265
297 295 292 288 287 285 281 281 278 276 276 275 273 269 267 265 265 266 268 269 269 268 268 266 266 265 264 264 263 263 262 261 261 261 260 259 259 260 260 262 264 264 265
294 293 291 287 285 283 280 279 279 278 277 276 274 271 270 268 268 268 269 270 270 270 270 268 268 266 265 264 263 262 263 262 261 260 259 258 259 260 262 262 264 264 263
291 291 290 289 287 285 282 280 279 279 278 277 274 273 271 270 271 271 271 271 272 272 271 270 268 267 265 264 264 263 262 260 260 259 258 260 261 261 262 262 263 261 261
289 289 288 288 287 286 284 282 280 280 279 277 275 275 273 272 271 272 273 273 273 273 273 271 267 266 266 264 263 263 262 261 260 259 260 261 261 262 262 262 262 261 260
287 288 287 287 287 286 284 282 281 281 279 276 276 277 276 275 274 274 275 274 275 274 274 272 269 266 266 265 264 263 262 261 261 260 261 260 261 262 262 261 262 262 260
286 284 284 285 285 285 283 281 280 279 277 276 276 276 277 277 277 278 276 276 276 276 275 272 272 269 267 265 263 263 263 261 260 260 261 260 260 261 262 262 263 263 261
285 283 282 285 285 284 282 281 279 278 278 277 276 276 276 278 279 279 277 277 277 276 275 273 272 271 269 267 264 263 262 261 260 260 260 260 260 261 262 262 263 263 261
284 283 284 284 284 283 281 280 279 278 278 277 277 277 277 279 279 278 278 278 278 278 278 274 273 272 269 267 265 264 263 262 260 260 259 258 258 260 261 261 262 262 261
284 284 284 283 282 281 279 278 278 279 278 277 277 277 278 279 279 279 279 279 278 278 278 275 272 270 268 266 266 264 263 263 261 260 260 259 258 258 258 260 262 262 261
285 285 285 283 282 280 279 279 279 280 280 279 278 277 279 280 279 278 279 278 278 277 277 275 272 271 269 267 266 265 263 262 261 260 260 259 258 257 257 259 260 260 260
284 285 284 283 281 279 279 280 280 280 281 281 280 280 280 281 280 278 278 278 278 277 276 276 274 271 269 267 266 266 265 263 261 260 259 259 259 257 256 257 258 258 258
Height
5839 5838 5838 5838 5839 5839 5839 5839 5839 5839 5840 5841 5841 5842 5842 5843 5843 5844 5845 5845 5846 5847 5848 5848 5849 5849 5850 5850 5850 5850 5850 5851 5852 5852 5853 5854 5855 5856 5856 5857 5858 5858 5859
5835 5835 5835 5835 5835 5835 5835 5836 5836 5836 5836 5837 5838 5838 5838 5839 5840 5840 5841 5842 5842 5843 5844 5845 5845 5846 5846 5846 5847 5847 5847 5848 5848 5849 5850 5850 5851 5852 5853 5854 5854 5855 5855
5832 5832 5832 5832 5832 5832 5832 5832 5832 5832 5833 5833 5834 5834 5835 5835 5836 5837 5837 5838 5839 5839 5840 5841 5842 5842 5843 5843 5843 5843 5844 5844 5845 5845 5846 5847 5847 5848 5849 5850 5850 5851 5852
5828 5828 5828 5828 5828 5828 5828 5828 5828 5829 5829 5829 5830 5830 5830 5831 5832 5832 5833 5834 5835 5835 5836 5837 5838 5838 5839 5839 5839 5839 5840 5841 5841 5842 5842 5843 5843 5844 5845 5846 5846 5847 5848
5825 5824 5824 5824 5824 5824 5824 5825 5825 5825 5825 5825 5826 5826 5826 5827 5828 5828 5829 5830 5831 5831 5832 5833 5834 5834 5835 5835 5835 5835 5836 5837 5837 5838 5838 5839 5840 5840 5841 5842 5843 5843 5844
5821 5821 5820 5820 5820 5820 5820 5820 5821 5821 5821 5821 5822 5822 5822 5823 5824 5824 5825 5826 5826 5827 5828 5829 5829 5830 5830 5830 5830 5831 5831 5832 5833 5833 5834 5835 5836 5836 5837 5838 5839 5840 5840
5817 5816 5816 5816 5815 5815 5816 5816 5816 5816 5817 5817 5818 5818 5818 5819 5819 5820 5821 5821 5822 5823 5823 5824 5825 5826 5826 5826 5826 5826 5827 5828 5828 5829 5830 5831 5831 5832 5833 5834 5834 5835 5836
5813 5812 5811 5811 5811 5811 5811 5811 5811 5812 5812 5812 5813 5813 5814 5815 5815 5815 5816 5816 5817 5818 5819 5819 5820 5821 5821 5822 5822 5822 5823 5823 5824 5825 5825 5826 5827 5828 5829 5829 5830 5831 5832
5809 5808 5807 5806 5806 5806 5806 5806 5806 5807 5807 5808 5808 5809 5809 5810 5810 5811 5811 5812 5812 5813 5814 5814 5815 5815 5816 5817 5817 5817 5818 5819 5819 5820 5821 5822 5822 5823 5824 5825 5826 5826 5827
5805 5804 5803 5802 5801 5801 5801 5801 5802 5802 5802 5803 5803 5803 5804 5804 5805 5806 5806 5806 5807 5808 5808 5809 5810 5810 5811 5811 5812 5812 5813 5814 5814 5815 5816 5817 5818 5818 5819 5820 5821 5821 5822
5802 5800 5799 5797 5796 5796 5796 5797 5797 5797 5798 5798 5798 5798 5799 5799 5800 5800 5801 5802 5802 5802 5803 5803 5804 5805 5805 5806 5806 5807 5807 5808 5809 5810 5811 5812 5812 5813 5814 5814 5815 5816 5817
5798 5796 5795 5794 5793 5792 5792 5792 5792 5793 5793 5793 5793 5793 5794 5794 5794 5795 5796 5796 5797 5797 5797 5798 5798 5799 5799 5800 5800 5801 5802 5802 5803 5804 5805 5806 5807 5807 5808 5809 5809 5810 5810
5794 5793 5791 5790 5789 5788 5788 5788 5788 5788 5788 5788 5788 5788 5789 5789 5789 5790 5790 5791 5791 5792 5792 5792 5792 5793 5793 5794 5795 5795 5796 5796 5797 5798 5799 5800 5801 5802 5802 5803 5804 5804 5804
5790 5789 5787 5786 5786 5785 5784 5784 5783 5783 5783 5783 5783 5783 5783 5784 5784 5784 5785 5785 5785 5786 5786 5786 5786 5786 5787 5787 5788 5788 5789 5790 5790 5791 5792 5794 5794 5795 5796 5797 5798 5798 5798
5787 5785 5783 5782 5781 5781 5780 5780 5779 5778 5778 5778 5778 5778 5778 5778 5779 5779 5779 5779 5780 5780 5780 5780 5780 5780 5780 5780 5781 5782 5782 5783 5784 5785 5786 5787 5788 5789 5790 5791 5791 5791 5791
5782 5781 5779 5778 5777 5776 5776 5775 5775 5774 5773 5773 5773 5772 5773 5773 5773 5773 5773 5773 5773 5773 5773 5773 5773 5773 5773 5773 5774 5775 5776 5776 5777 5778 5779 5780 5781 5782 5784 5784 5784 5785 5785
5778 5776 5775 5773 5772 5771 5771 5770 5769 5769 5768 5768 5767 5767 5767 5767 5767 5767 5767 5767 5767 5766 5766 5766 5766 5766 5766 5766 5767 5768 5769 5770 5770 5771 5772 5774 5775 5776 5777 5778 5779 5779 5779
5772 5771 5770 5768 5767 5766 5765 5764 5764 5763 5763 5762 5761 5761 5761 5761 5761 5760 5760 5760 5760 5759 5759 5759 5759 5759 5759 5759 5760 5761 5762 5763 5764 5764 5766 5767 5769 5770 5770 5771 5772 5773 5773
5767 5765 5764 5763 5762 5761 5760 5759 5758 5757 5757 5756 5756 5755 5755 5755 5754 5754 5754 5753 5753 5752 5752 5751 5751 5751 5752 5752 5753 5754 5754 5755 5757 5758 5759 5760 5761 5762 5763 5764 5765 5766 5766
5761 5760 5758 5757 5756 5755 5754 5753 5752 5751 5750 5750 5749 5749 5749 5748 5748 5748 5747 5746 5746 5745 5744 5744 5743 5744 5744 5745 5746 5747 5747 5748 5749 5751 5752 5753 5754 5755 5756 5757 5758 5758 5759
5755 5753 5752 5751 5750 5749 5748 5747 5746 5745 5744 5744 5743 5743 5742 5742 5741 5741 5740 5739 5738 5738 5737 5736 5736 5736 5736 5737 5738 5739 5740 5740 5741 5743 5744 5745 5746 5747 5748 5749 5750 5751 5751
5748 5747 5746 5745 5743 5742 5741 5740 5739 5738 5738 5737 5737 5736 5735 5735 5734 5733 5732 5732 5731 5730 5729 5728 5728 5728 5728 5729 5729 5730 5731 5732 5733 5735 5736 5737 5738 5739 5740 5741 5742 5743 5744
5741 5740 5739 5737 5736 5735 5734 5733 5732 5732 5731 5730 5729 5729 5728 5727 5726 5725 5725 5724 5723 5722 5721 5720 5719 5719 5719 5720 5721 5722 5723 5723 5725 5726 5727 5728 5730 5731 5732 5733 5734 5735 5736
5734 5732 5731 5730 5728 5727 5726 5725 5724 5724 5723 5723 5722 5721 5720 5719 5718 5717 5716 5715 5714 5713 5712 5711 5710 5711 5711 5711 5712 5713 5713 5714 5715 5716 5718 5719 5720 5722 5723 5724 5725 5726 5727
5726 5724 5723 5722 5720 5719 5718 5717 5717 5716 5715 5714 5713 5712 5712 5711 5710 5709 5708 5707 5706 5705 5703 5702 5701 5701 5701 5702 5702 5703 5704 5705 5706 5707 5708 5710 5711 5713 5714 5715 5716 5717 5718
5718 5716 5715 5714 5712 5711 5710 5710 5709 5708 5707 5706 5705 5704 5703 5702 5700 5699 5699 5698 5696 5695 5694 5693 5692 5692 5692 5692 5692 5693 5694 5695 5696 5697 5698 5700 5701 5703 5705 5706 5706 5708 5709